Skip Page Navigation
NASA JPL Caltech
NASA Logo - Jet Propulsion Laboratory + View the NASA Portal
+ Center for Near-Earth Object Studies
JPL Home Earth Solar System Stars & Galaxies Technology
JPL Solar System Dynamics
BODIES ORBITS EPHEMERIDES TOOLS PHYSICAL DATA DISCOVERY FAQ SITE MAP
IMPORTANT: The SSD Announcement email list is now available. Major changes are coming in the near future, including possible hostname and/or URL changes. To be notified of such changes, subscribe to this email list.

Please visit this page for more details.


JPL Small-Body Database Browser
Search: [ help ]  
324594 (2006 XX47)
Classification: Main-belt Asteroid          SPK-ID: 2324594
Ephemeris | Orbit Diagram | Orbital Elements | Mission Design | Physical Parameters | Discovery Circumstances ]

[ show orbit diagram ]
Orbital Elements at Epoch 2458600.5 (2019-Apr-27.0) TDB
Reference: JPL 11 (heliocentric ecliptic J2000)
 Element Value Uncertainty (1-sigma)   Units 
e .1287095107155547 5.6243e-08  
a 2.64475796104582 3.6211e-08 au
q 2.304352457918544 1.4985e-07 au
i 12.03207423611558 7.4995e-06 deg
node 286.6580271965116 4.7176e-05 deg
peri 157.7340975804977 8.3104e-05 deg
M 322.9926582392969 6.9381e-05 deg
tp 2458761.996351977616
(2019-Oct-05.49635198)
0.00030517 TDB
period 1571.004129069257
4.30
3.2265e-05
8.834e-08
d
yr
n .2291528031904553 4.7062e-09 deg/d
Q 2.985163464173095 4.0872e-08 au
  Orbit Determination Parameters
   # obs. used (total)      194  
   data-arc span      6269 days (17.16 yr)  
   first obs. used      2001-09-10  
   last obs. used      2018-11-09  
   planetary ephem.      DE431  
   SB-pert. ephem.      SB431-N16  
   condition code      0  
   norm. resid. RMS      .56674  
   source      ORB  
   producer      Otto Matic  
   solution date      2019-Jul-14 08:42:54  

Additional Information
 Earth MOID = 1.32516 au 
 Jupiter MOID = 2.21944 au 
 T_jup = 3.350 
[ show covariance matrix ]

Ephemeris | Orbit Diagram | Orbital Elements | Mission Design | Physical Parameters | Discovery Circumstances ]

Physical Parameter Table
Parameter Symbol Value Units Sigma Reference Notes
absolute magnitude H 16.1   n/a MPO368266  

324594 (2006 XX47)          Discovered 2006-Dec-13 by Spacewatch at Kitt Peak
Reference: 20120406/Numbers.arcLast Updated: 2012-04-09
Ephemeris | Orbit Diagram | Orbital Elements | Mission Design | Physical Parameters | Discovery Circumstances ]
ABOUT SSD CREDITS/AWARDS PRIVACY/COPYRIGHT GLOSSARY LINKS
FirstGov
(server date/time)  
NASA Home Page
Site Manager:   Ryan S. Park
Webmaster  Alan B. Chamberlin